Regional Weather Roundup
Issued by NWS Pendleton, OR

Home | Current Version | Previous Version | Text Only | Print | Product List | Glossary On
Versions: 1 2 3 4 5 6 7 8 9 10 11 12 13 14 15 16 17 18 19 20 21 22 23 24 25 26 27 28 29 30 31 32 33 34 35 36 37 38 39 40 41 42 43 44 45 46 47 48 49 50
850
ASUS46 KPDT 050925
RWRPDT
PENDLETON REGIONAL WEATHER ROUNDUP
NATIONAL WEATHER SERVICE PENDLETON OREGON
100 AM PST MON DEC 5 2016

NOTE: FAIR INDICATES FEW OR NO CLOUDS BELOW 12,000 FEET WITH NO
SIGNIFICANT WEATHER AND/OR OBSTRUCTIONS TO VISIBILITY.

# INDICATES UNOFFICIAL STATION AND DATA

WAZ520-051010-
EAST SLOPES OF WASHINGTON CASCADES

CITY            SKY/WX      TMP DP  RH  WIND    PRES   REMARKS
#CLE ELUM HS    N/A         29  23  78  W7      30.01S
#CLE ELUM LAKE  N/A         27  23  85  CALM    30.11S
#GLENWOOD       N/A         31  26  81  S7      30.14S
#MANASTASH CYN  N/A         23  16  74  CALM    29.98R
#NELSON 3SW     N/A         26  22  85  CALM    30.34S
#NILE           N/A         23  21  92  CALM    29.37S
#RONALD 2NW     N/A         26  N/A N/A W2      30.00F
#TEANAWAY 4NE   N/A         24  21  88  CALM    N/A
#TROUT LAKE 1NE N/A         29  25  85  W3      30.18S
$$

WAZ521-051010-
SIMCOE HIGHLANDS

CITY            SKY/WX      TMP DP  RH  WIND    PRES   REMARKS
#CENTERVILLE 1SWN/A         29  24  81  CALM    30.12S
#GOLDENDALE 1NE N/A         29  16  58  SW2     N/A
#GOLDENDALE 4W  N/A         29  11  46  W6      30.12F
#GOODNOE HILLS  N/A         33  24  69  W8      30.01R
#LYLE 6NE       N/A         33  29  85  SW10    30.13F
$$

WAZ026-051010-
KITTITAS VALLEY

CITY            SKY/WX      TMP DP  RH  WIND    PRES   REMARKS
ELLENSBURG AP   CLEAR       29  22  75  W8      30.05S
#ELLENSBURG CWU N/A         30  24  78  CALM    30.05S
#ELLENSBURG 3NE N/A         29  23  78  W2      30.05R
#KITTITAS 4N    N/A         26  20  78  W3      30.07S
#KITTITAS 3S    N/A         24  20  84  CALM    30.10S
#THORP 6N       N/A         27  22  81  NW20G35 30.11S WCI 13
$$

WAZ027-051010-
YAKIMA VALLEY

CITY            SKY/WX      TMP DP  RH  WIND    PRES   REMARKS
SUNNYSIDE AP    CLEAR       25  19  78  N7      30.11S
YAKIMA AIRPORT  CLEAR       23  16  74  W6      30.09S
YAKIMA-VAGABOND CLEAR       29  17  60  S6      30.05S
#GRANDVIEW      N/A         27  17  65  CALM    30.14F
#MABTON         N/A         28  20  71  CALM    30.11S
#NACHES 2SW     N/A         30  21  69  W1      29.99S
#TERRACE HTS    N/A         30  19  63  CALM    30.08S
#TOPPENISH      N/A         29  20  69  CALM    30.04S
#WEST VALLEY    N/A         28  18  66  N1      30.10S
#W YAKIMA       N/A         30  19  63  CALM    30.11S
#WHITE SWAN 5E  N/A         26  19  74  CALM    30.12S
#WILEY CITY 3W  N/A         25  12  57  CALM    30.03S
$$

WAZ028-051010-
LOWER COLUMBIA BASIN...WASHINGTON

CITY            SKY/WX      TMP DP  RH  WIND    PRES   REMARKS
HANFORD         MOCLEAR     30  16  55  W9      30.10R
PASCO           CLEAR       29  20  69  E5      30.13S
PROSSER AWOS    N/A         25  19  78  CALM    30.15S
RICHLAND AWOS   CLEAR       33  21  61  CALM    30.13S
#BENTON CITY    N/A         30  19  63  CALM    30.04S
#CONNELL 5N     N/A         23  19  84  CALM    30.13R
#CONNELL 5NW    N/A         25  21  84  CALM    30.08R
#ELTOPIA 6NW    N/A         32  21  63  CALM    29.06R
#KAHLOTUS       N/A         28  21  75  CALM    30.12R
#KENNEWICK 3S   N/A         33  24  69  N1      30.13S
#PATERSON       N/A         31  26  81  CALM    30.14S
#SAGEMOOR 2W    N/A         30  20  66  SW3     29.97R
#TOUCHET 2S     N/A         34  26  72  SW15    30.12R WCI 24
#WEST PASCO     N/A         30  17  58  CALM    30.15R
$$

WAZ029-051010-
FOOTHILLS OF THE BLUES...WASHINGTON

CITY            SKY/WX      TMP DP  RH  WIND    PRES   REMARKS
WALLA WALLA AP  CLEAR       30  22  72  S9      30.12R
#CLYDE 6NW      N/A         28  22  78  S5      30.13R
#DAYTON SCHOOL  N/A         32  19  58  S12     30.10R WCI 23
#LOWDEN 2SE     N/A         32  25  75  S1      30.11R
#PLEASANT VIEW 1N/A         24  20  84  S7      30.16R
#PRESCOTT       N/A         29  25  85  CALM    30.14R
#WHITMAN COLLEGEN/A         33  25  72  SE3     30.20R
#WAITSBURG 5S   N/A         30  25  81  S7      30.24R
#WAITSBURG 8N   N/A         26  N/A N/A S3      30.08S
#WALLA WALLA U  N/A         31  25  78  CALM    30.16R
#WHITMAN MISSIONN/A         30  25  81  CALM    30.17R
$$

WAZ030-051010-
BLUE MOUNTAINS...WASHINGTON

CITY            SKY/WX      TMP DP  RH  WIND    PRES   REMARKS
#DIXIE 5SE      N/A         33  32  96  SW15    29.96R WCI 23
#SKI BLUEWOOD   N/A         19  17  92  S1      29.93S
$$

ORZ009-041-WAZ024-051010-
COLUMBIA RIVER GORGE

CITY            SKY/WX      TMP DP  RH  WIND    PRES   REMARKS
HOOD RIVER AP   PTCLDY      34  30  85  CALM    30.18F
THE DALLES AP   PTCLDY      39  30  70  NW8     30.16F
#ARLINGTON AIRPON/A         34  28  78  SW5     30.17R
#ARLINGTON HS   N/A         37  27  67  N2      30.07S
#CELILO DOT     N/A         39  27  62  SW8     N/A
#LYLE           N/A         41  34  76  NW10    30.19F
#MOSIER 1S      N/A         35  21  56  NW3     N/A
#MURDOCK        N/A         40  33  76  SW5     30.13F
#RUFUS DOT      N/A         41  27  57  W17     N/A    WCI 33
#SMITHVILLE     N/A         39  33  79  N10     30.11F

$$

ORZ510-051010-
NORTH CENTRAL OREGON

CITY            SKY/WX      TMP DP  RH  WIND    PRES   REMARKS
#ANTELOPE       N/A         25  21  84  CALM    30.05F
#CHENOWITH 1W   N/A         31  28  88  NW22    N/A    WCI 18
#COW CYN RST AREN/A         28  N/A N/A SW8     N/A
#DUFUR 9E       N/A         30  22  72  W6      30.21S
#GRASS VALLEY 1SN/A         24  20  84  SW6     30.02F
#KENT DOT       N/A         27  17  65  N12     N/A    WCI 16
#MAUPIN SCHOOL  N/A         35  26  69  SW2     30.17F
#MORO SCHOOL    N/A         32  27  82  SW9     30.09S
#SHANIKO 5WSW   N/A         26  15  63  N16     N/A    WCI 14
#SHANIKO 4NW    N/A         25  20  81  SW14    30.04F WCI 13
#WAPANITIA AIRPON/A         32  24  72  W9      30.17F
#WASCO DOT      N/A         30  26  85  W5      N/A
#WASCO 5NE      N/A         30  26  85  SW7     30.15R
$$

ORZ511-051010-
CENTRAL OREGON

CITY            SKY/WX      TMP DP  RH  WIND    PRES   REMARKS
BEND AIRPORT    PTCLDY      23  19  84  CALM    30.11S
MADRAS AIRPORT  PTCLDY      23  19  84  S8      30.15S
PRINEVILLE AP   PTCLDY      21  19  92  MISG    30.12S
REDMOND AIRPORT PTCLDY      22  16  77  S5      30.12S
#ASHWOOD SCHOOL N/A         30  23  75  SW2     30.07S
#BEND 1SW       N/A         23  20  88  CALM    N/A
#BEND-AWBREY    N/A         24  22  92  S3      30.20R
#BEND-KIM LN    N/A         20  17  88  CALM    30.03S
#CULVER         N/A         27  21  78  SW5     30.14R
#CULVER 8W      N/A         22  16  77  CALM    30.11F
#LAKE BILLY CHINN/A         27  N/A N/A CALM    30.23R
#MADRAS 4S      N/A         27  -9  20  S6      30.19S
#POWELL BUTTE 3EN/A         21  18  88  NE1     N/A
#POWELL BUTTE   N/A         27  18  68  W5      30.05F
#PRINEVILLE 3N  N/A         23  20  88  CALM    30.23S

$$


ORZ509-051010-
EAST SLOPES OF OREGON CASCADES

CITY            SKY/WX      TMP DP  RH  WIND    PRES   REMARKS
SISTERS AWOS    N/A         25  21  84  CALM    30.07S
#BLUE BOX PASS  N/A         23  N/A N/A CALM    N/A
#CAMP SHERMAN   N/A         24  20  84  CALM    30.29S
#LA PINE DOT    N/A         18  16  92  CALM    N/A
#LA PINE 4NW    N/A         20  16  84  CALM    30.25S
#LAVA BUTTE DOT N/A         18  17  96  CALM    N/A
#SISTERS AIRPOR N/A         23  22  96  CALM    30.17S
#SISTERS ODOT   N/A         22  N/A N/A CALM    N/A
#SISTERS 3N     N/A         25  18  74  CALM    30.11S
#SUNRIVER       N/A         20  18  92  CALM    30.23R
#SUTTLE LK DOT  N/A         19  19  100 W23G41  N/A    WCI  2
#TUMALO 3W      N/A         23  18  81  W1      30.08S
#WANOGA BUTTE D N/A         17  11  77  W9      N/A

$$

ORZ044-051010-
LOWER COLUMBIA BASIN...OREGON

CITY            SKY/WX      TMP DP  RH  WIND    PRES   REMARKS
HERMISTON       PTCLDY      32  23  69  SW6     30.13S
#BOARDMAN SCHOOLN/A         32  26  78  SW5     30.15S
#I-84 EX 198 DOTN/A         32  23  69  SW6     N/A
#UMATILLA       N/A         31  23  72  CALM    30.09S
$$

ORZ507-051010-
NORTHERN FOOTHILLS OF THE BLUES

CITY            SKY/WX      TMP DP  RH  WIND    PRES   REMARKS
PENDLETON AIRPT PTCLDY      30  20  66  S5      30.10S
#ADAMS 3WNW     N/A         24  20  84  CALM    30.16R
#ATHENA         N/A         28  23  81  CALM    30.19R
#CAYUSE         N/A         32  23  69  W5      30.14S
#HELIX SCHOOL   N/A         26  22  85  S2      30.16R
#HOLDMAN 5SE    N/A         29  24  81  S3      30.09S
#HOLDMAN 6E     N/A         29  24  81  SE6     29.96R
#M-F GROVE ELEM N/A         32  21  63  S3      30.10R
#M-FREEWATER 5SEN/A         33  23  66  S8      30.11R
#PENDLETON DNTN N/A         29  16  58  CALM    30.13S
#PDT AQUATIC CTRN/A         29  18  63  CALM    30.13S
#PDT SUNRIDGE   N/A         27  21  78  CALM    30.14S
#PENDLETON 7NW  N/A         31  22  69  SW3     31.38S
#PILOT ROCK 1S  N/A         28  17  63  S7      30.11S
#PILOT ROCK     N/A         29  21  72  SW7     30.11F
#TUTUILLA       N/A         27  21  78  CALM    30.14S
#UMAPINE 2E     N/A         34  26  72  SW3     30.10R
#WESTON SCHOOL  N/A         30  19  63  SW7     30.02R

$$

ORZ508-051010-
SOUTHERN FOOTHILLS OF THE BLUES

CITY            SKY/WX      TMP DP  RH  WIND    PRES   REMARKS
LEXINGTON       PTCLDY      32  21  63  SW12    30.14S WCI 23
#AJAX           N/A         30  14  51  S5      27.84S
#CONDON SCHOOL  N/A         26  21  81  SW6     30.02F
#CONDON 5W      N/A         24  18  77  SW7     30.01F
#HEPPNER EOC    N/A         31  21  66  SW7     30.09S
#HEPPNER 4NE    N/A         27  20  74  SW5     30.15F
#LEXINGTON 2SE  N/A         31  21  66  SW5     30.09S
#MIKKALO        N/A         32  19  58  W7      30.19F
#OLEX 4N        N/A         32  24  72  S5      30.11F
#RUGGS 5NE      N/A         24  17  74  S7      30.17F
#RUGGS 2SW      N/A         24  18  77  SW7     30.19R

$$

ORZ502-503-051010-
BLUE MOUNTAINS

CITY            SKY/WX      TMP DP  RH  WIND    PRES   REMARKS
MEACHAM         MOCLDY      18  14  84  CALM    30.02R
#BATTLE MTN DOT N/A         19  14  80  S3      N/A
#GREENHORN 9SW  N/A         24  21  88  CALM    26.24R
#HEPPNER 15SE   N/A         20  17  88  CALM    N/A
#LADD CYN SMT   N/A         20  12  71  E2      N/A
#LADD CREEK ODOTN/A         20  -26 11  CALM    N/A
#LONG CREEK HS  N/A         24  21  88  S5      30.06S
#N POWDER DOT   N/A         22  12  65  N8      N/A
#PIKES PEAK     N/A         24  21  88  SW6     27.99S
#TOLLGATE       N/A         18  17  96  CALM    29.81S
#TROY SCHOOL    N/A         28  25  88  CALM    29.99R
#UKIAH          N/A         21  17  84  CALM    30.09R
#WESTON 4E      N/A         24  21  88  S3      30.12R
$$

ORZ505-051010-
JOHN DAY BASIN

CITY            SKY/WX      TMP DP  RH  WIND    PRES   REMARKS
JOHN DAY        PTCLDY      24  19  81  N5      30.08R
#ANTELOPE 9ESE  N/A         37  22  54  SW2     N/A
#DAYVILLE SCHOOLN/A         26  18  71  CALM    30.09S
#MITCHELL       N/A         24  21  88  CALM    30.26S
#MITCHELL 8NW   N/A         27  18  68  S1      30.15S
#MONUMENT HS    N/A         24  20  84  CALM    30.14R
#MT. VERNON 5SE N/A         19  16  88  CALM    30.01R
#SPRAY SCHOOL   N/A         23  N/A N/A CALM    N/A
$$

ORZ506-051010-
OCHOCO AND JOHN DAY HIGHLANDS

CITY            SKY/WX      TMP DP  RH  WIND    PRES   REMARKS
#BUCK CREEK DOT N/A         22  21  96  W9      N/A
#HORSE RIDGE DO N/A         12   8  84  CALM    N/A
#KEYES SMT DOT  N/A         21  19  92  SW6     N/A
#PAULINA SCHOOL N/A         23  19  84  SW3     N/A
#PINE MTN OBS   N/A         15  13  92  CALM    N/A
#PRAIRIE CITY   N/A         23  17  77  CALM    30.25R
#SENECA         N/A         14  N/A N/A CALM    N/A
#SENECA 9NW     N/A         10   7  87  CALM    30.19R
$$

ORZ049-051010-
GRANDE RONDE VALLEY

CITY            SKY/WX      TMP DP  RH  WIND    PRES   REMARKS
LA GRANDE       CLEAR       28  12  50  NW14    30.06R WCI 17
#COVE           N/A         27  22  81  CALM    30.10R
#COVE SCHOOL    N/A         26  21  81  CALM    30.08R
#COVE 6NW       N/A         26  20  78  CALM    30.17R
#ELGIN 3N       N/A         26  15  63  S13     30.04R WCI 15
#ELGIN 1E       N/A         29  20  69  CALM    N/A
#IMBLER SCHOOL  N/A         27  21  78  CALM    30.03R
#ISLAND CITY 4N N/A         33  32  96  CALM    30.25F
#LADD CYN DOT   N/A         24  18  77  NE3     N/A
#UNION 1S       N/A         27  20  74  CALM    30.17R
$$

ORZ050-051010-
WALLOWA COUNTY

CITY            SKY/WX      TMP DP  RH  WIND    PRES   REMARKS
JOSEPH AIRPORT  CLEAR       12   9  87  S7      29.99R
#IMNAHA SCHOOL  N/A         32  22  66  CALM    30.08R
#IMNAHA 10S     N/A         29  18  63  CALM    30.03R
#JOSEPH 3N      N/A         16   6  64  CALM    30.01R
#JOSEPH 3W      N/A         14   8  76  CALM    29.82R
#LOSTINE        N/A         24  16  71  NW1     29.93R
#LOSTINE 3SE    N/A         22  15  74  N1      30.01R
#MT HOWARD 8000 N/A          6   2  83  W6      29.70R
#PROMISE 1S     N/A         22  17  81  E2      30.25R
#WALLOWA SCHOOL N/A         26  18  71  CALM    30.02R



$$



USA.gov is the U.S. government's official web portal to all federal, state and local government web resources and services.